sat.trackr.live / text

‹ back to catalog

THOR 6

NORAD 36033 · 2009-058B

PAYLOAD ACTIVE UNKNOWN

§ Identity

Operator
Country
NOR
Launch date
2009-10-29
Launch site
FRGUI
Launch vehicle
Mass (kg)
RCS (m²)
7.08

Purposes: comms

External: N2YO · Heavens-Above · Gunter

§ Orbital elements

Epoch: 2026-05-25T03:44:24.780768Z

Period
1,436.09 min
Inclination
0.0517°
Eccentricity
0.0001811
Mean motion
1.00272277 rev/d
Perigee alt
35,778.8 km
Apogee alt
35,794.1 km
Semi-major
42,164.6 km
B*
0.0000e+0
RAAN
116.2539°
Arg perigee
310.6758°
Mean anomaly
231.0712°
Rev number
6,077

§ Raw data

THOR 61 36033U 09058B   26145.15584237 -.00000012  00000+0  00000+0 0  99922 36033   0.0517 116.2539 0001811 310.6758 231.0712  1.00272277 60772

JSON: /api/v1/satellites/36033 · /tle

For live sub-satellite position, see the globe view (requires WebGL).

§ Visibility from observer

Set your observer location to see the next 7 days of passes ≥ 10°. The values pass through the URL so the page stays shareable.

No JS? Fill the form by hand. The geolocation button needs JavaScript.